Location: Burzi?i
(45.0869°N, 16.0577°E)
Time: 04:32:34
(UTC+00:00)

NOSS 3-3 (A) - Pass Details

Date: 29 October 2020
Orbit: 819 x 1393 km, 63.4° (Epoch: 29 November)

Event Time Altitude Azimuth Distance (km) Brightness Sun altitude
Rises 18:04:13 0° 230° (SW) 3,406 7.5 -24.6°
Reaches altitude 10° 18:06:36 10° 235° (SW) 2,517 6.8 -25.0°
Maximum altitude 18:12:21 59° 314° (NW) 1,087 4.4 -26.0°
Enters shadow 18:16:07 25° 25° (NNE) 1,899 5.3 -26.7°
